{"data":{"norad_id":53608,"epoch":"2026-09-20T02:44:33.427392Z","epoch_age_seconds":114736,"freshness":"FRESH","line1":"1 53608U 22104W   26263.11427578  .00000256  00000+0  18719-4 0  9997","line2":"2 53608  53.1588  69.6413 0001352  88.8800 271.2357 15.34385455225140","mean_motion":15.34385455,"eccentricity":0.0001352,"inclination_deg":53.1588,"raan_deg":69.6413,"arg_perigee_deg":88.88,"mean_anomaly_deg":271.2357,"bstar":1.8719e-5,"rev_number":22514,"period_min":93.848647698502,"perigee_km":461.8215839085,"apogee_km":463.67135879915,"semimajor_km":6840.8834713538,"source":"CELESTRAK","updated_at":"2026-09-21T09:00:32.939018Z"}}